This demonstration page uses our WeatherBlox Daily Observations layout. Learn more.

Left ArrowRight Arrow

47.50024, -111.30081

Hourly Observations for May 24, 2017

Temp ( °F °C ) Dew Point ( °F °C ) Humidity (%) Winds ( mph kmh ) Pressure ( in mb ) Visibility ( mi km ) Precip ( " mm )
12:53 am 00:53 Clear 65 18.3 37 2.8 36 36 SW 14 22 29.50 999 10 16 0.00 0.00
1:53 am 01:53 Clear 64 17.8 36 2.2 35 35 SSW 15 24 29.47 998 10 16 0.00 0.00
2:53 am 02:53 Clear 61 16.1 39 3.9 44 44 SW 16 26 29.43 997 10 16 0.00 0.00
3:53 am 03:53 Clear 67 19.4 39 3.9 36 36 SW 21 33 29.37 995 10 16 0.00 0.00
4:53 am 04:53 Mostly Clear 66 18.9 39 3.9 37 37 SW 18 30 29.34 993 10 16 0.00 0.00
5:53 am 05:53 Sunny 63 17.2 41 5 45 45 SW 15 24 29.32 993 10 16 0.00 0.00
6:53 am 06:53 Sunny 64 17.8 39 3.9 40 40 WSW 20 31 29.30 992 10 16 0.00 0.00
7:53 am 07:53 Sunny 65 18.3 30 -1.1 27 27 WSW 39 63 29.30 992 10 16 0.00 0.00
8:53 am 08:53 Sunny 64 17.8 28 -2.2 26 26 WSW 33 54 29.36 994 10 16 0.00 0.00
9:53 am 09:53 Mostly Sunny 64 17.8 31 -0.6 29 29 WSW 33 54 29.37 995 10 16 0.00 0.00
10:53 am 10:53 Sunny 64 17.8 21 -6.1 19 19 W 36 57 29.37 995 10 16 0.00 0.00
11:53 am 11:53 Sunny 64 17.8 21 -6.1 19 19 WSW 31 50 29.36 994 10 16 0.00 0.00
12:53 pm 12:53 Sunny 65 18.3 22 -5.6 19 19 WSW 36 57 29.34 994 10 16 0.00 0.00
1:53 pm 13:53 Mostly Sunny 65 18.3 21 -6.1 19 19 SW 32 52 29.34 993 10 16 0.00 0.00
2:53 pm 14:53 Partly Cloudy 65 18.3 18 -7.8 16 16 W 35 56 29.33 993 10 16 0.00 0.00
3:53 pm 15:53 Mostly Sunny 63 17.2 17 -8.3 17 17 W 32 52 29.31 993 10 16 0.00 0.00
4:53 pm 16:53 Sunny 61 16.1 14 -10 16 16 W 40 65 29.35 994 10 16 0.00 0.00
5:53 pm 17:53 Mostly Sunny 59 15 15 -9.4 18 18 W 35 56 29.40 996 10 16 0.00 0.00
6:53 pm 18:53 Sunny 58 14.4 19 -7.2 22 22 W 25 41 29.43 997 10 16 0.00 0.00
7:53 pm 19:53 Sunny 55 12.8 19 -7.2 24 24 W 29 46 29.44 997 10 16 0.00 0.00
8:53 pm 20:53 Sunny 51 10.6 22 -5.6 32 32 W 22 35 29.47 998 10 16 0.00 0.00
9:53 pm 21:53 Cloudy 50 10 24 -4.4 36 36 W 20 31 29.49 999 10 16 0.00 0.00
10:53 pm 22:53 Cloudy 51 10.6 24 -4.4 35 35 W 24 39 29.50 999 10 16 0.00 0.00
11:53 pm 23:53 Cloudy with Light Rain 46 7.8 33 0.6 61 61 W 28 44 29.54 1000 10 16 0.00 0.03

Powered by AerisWeather